TimeEDT,TemperatureF,Dew PointF,Humidity,Sea Level PressureIn,VisibilityMPH,Wind Direction,Wind SpeedMPH,Gust SpeedMPH,PrecipitationIn,Events,Conditions,WindDirDegrees,DateUTC
1:51 AM,64.0,48.9,58,29.99,10.0,WSW,3.5,-,N/A,,Mostly Cloudy,250,2012-10-02 05:51:00
2:51 AM,62.6,50.0,63,29.98,10.0,Calm,Calm,-,N/A,,Overcast,0,2012-10-02 06:51:00
3:51 AM,63.0,50.0,63,29.98,10.0,Calm,Calm,-,N/A,,Overcast,0,2012-10-02 07:51:00
4:51 AM,64.0,52.0,65,29.99,10.0,West,3.5,-,N/A,,Overcast,280,2012-10-02 08:51:00
5:51 AM,64.0,51.1,63,29.99,10.0,Calm,Calm,-,N/A,,Overcast,0,2012-10-02 09:51:00
6:51 AM,64.9,51.1,61,30.00,10.0,Calm,Calm,-,N/A,,Overcast,0,2012-10-02 10:51:00
7:51 AM,66.2,53.6,64,30.01,10.0,SSE,3.5,-,N/A,,Overcast,150,2012-10-02 11:51:00
8:51 AM,66.9,53.1,61,30.03,10.0,Calm,Calm,-,N/A,,Overcast,0,2012-10-02 12:51:00
9:25 AM,68.0,53.6,60,30.02,10.0,ESE,4.6,-,N/A,,Overcast,110,2012-10-02 13:25:00
9:51 AM,68.0,53.1,59,30.02,10.0,East,5.8,-,N/A,,Overcast,100,2012-10-02 13:51:00
10:51 AM,70.0,55.9,61,30.02,10.0,SE,4.6,-,N/A,,Overcast,130,2012-10-02 14:51:00
11:14 AM,69.8,55.4,60,30.01,10.0,ESE,5.8,-,N/A,,Overcast,120,2012-10-02 15:14:00
11:49 AM,66.2,60.8,83,30.01,4.0,ESE,6.9,-,N/A,Rain,Rain,110,2012-10-02 15:49:00
11:51 AM,66.9,60.1,79,30.01,5.0,Variable,4.6,-,0.02,Rain,Light Rain,0,2012-10-02 15:51:00
12:51 PM,66.0,62.1,87,30.01,4.0,East,4.6,-,0.07,Rain,Rain,80,2012-10-02 16:51:00
1:51 PM,64.9,61.0,87,30.00,6.0,NE,6.9,-,0.04,Rain,Light Rain,40,2012-10-02 17:51:00
2:51 PM,64.9,62.1,90,29.99,7.0,NE,4.6,-,0.04,Rain,Light Rain,50,2012-10-02 18:51:00
3:51 PM,64.0,63.0,96,29.98,1.5,North,6.9,-,0.14,Rain,Light Rain,10,2012-10-02 19:51:00
4:27 PM,64.4,62.6,94,29.97,1.5,NE,6.9,-,0.01,Rain,Light Rain,40,2012-10-02 20:27:00
4:31 PM,64.4,62.6,94,29.97,2.0,NNE,6.9,-,0.01,Rain,Light Rain,30,2012-10-02 20:31:00
4:40 PM,64.4,62.6,94,29.97,1.5,NE,5.8,-,0.01,Rain,Light Rain,40,2012-10-02 20:40:00
4:51 PM,64.0,63.0,96,29.97,1.5,NNE,8.1,-,0.02,Rain,Light Rain,30,2012-10-02 20:51:00
5:09 PM,64.4,62.6,94,29.97,1.5,NNE,8.1,-,0.02,Rain,Light Rain,20,2012-10-02 21:09:00
5:51 PM,64.0,63.0,96,29.97,1.5,NNE,9.2,-,0.04,Rain,Light Rain,20,2012-10-02 21:51:00
6:51 PM,64.0,63.0,96,29.97,1.0,NE,5.8,-,0.03,,Light Drizzle,40,2012-10-02 22:51:00
7:02 PM,64.4,62.6,94,29.97,1.0,NE,5.8,-,0.00,,Light Drizzle,50,2012-10-02 23:02:00
7:30 PM,64.4,62.6,94,29.97,2.0,North,6.9,-,0.00,,Light Drizzle,10,2012-10-02 23:30:00
7:51 PM,63.0,63.0,100,29.98,2.0,North,9.2,-,0.00,,Light Drizzle,360,2012-10-02 23:51:00
8:20 PM,62.6,62.6,100,29.98,1.0,North,6.9,-,0.00,,Light Drizzle,10,2012-10-03 00:20:00
8:51 PM,63.0,63.0,100,29.99,0.8,NNE,10.4,-,0.00,,Light Drizzle,20,2012-10-03 00:51:00
9:51 PM,63.0,62.1,97,30.00,1.0,North,8.1,-,0.00,,Light Drizzle,10,2012-10-03 01:51:00
10:51 PM,63.0,63.0,100,29.99,1.0,NNE,6.9,-,0.00,,Light Drizzle,20,2012-10-03 02:51:00
11:51 PM,63.0,63.0,100,29.99,1.0,North,8.1,-,0.00,,Overcast,10,2012-10-03 03:51:00